Regional Weather Roundup
Issued by NWS

Home | Current Version | Previous Version | Graphics & Text | Print | Product List | Glossary Off
Versions: 1 2 3 4 5 6 7 8 9 10 11 12 13 14 15 16 17 18 19 20 21 22 23 24 25 26 27 28 29 30 31 32 33 34 35 36 37 38 39 40 41 42 43 44 45 46 47 48 49 50

000
ASUS43 KDMX 061003
RWRIA

WEATHER ROUNDUP FOR IOWA
NATIONAL WEATHER SERVICE DES MOINES IA
500 AM CDT FRI MAY 06 2016

NOTE: "FAIR" INDICATES FEW OR NO CLOUDS BELOW 12,000 FEET WITH NO
SIGNIFICANT WEATHER AND/OR OBSTRUCTIONS TO VISIBILITY.

* - THESE STATIONS ARE NOT NWS STATIONS...THUS NOT UNDER NWS
QUALITY CONTROL.  THEY ALSO DO NOT REPORT WEATHER SUCH
AS PRECIPITATION OR FOG.

IAZ001>003-012>014-020>022-031>034-043>046-061100-
   NORTHWEST IOWA

CITY           SKY/WX    TMP DP  RH WIND       PRES   REMARKS
CARROLL *      PTCLDY    57  41  54 SW14      29.97S
CHEROKEE *     CLEAR     49  43  80 CALM      29.96S
DENISON *      CLEAR     54  43  66 SW5       29.96F
LE MARS *      CLEAR     52  43  71 S6        29.96S
ORANGE CITY *  CLEAR     52  45  76 S8        29.95S
SHELDON *      CLEAR     54  43  66 S9        29.94S
SIOUX CITY     CLEAR     50  44  80 E7        29.96S
SPENCER        CLEAR     53  41  63 SW8       29.95S
STORM LAKE *   CLEAR     55  41  58 SW6       29.98R
$$

IAZ055>058-069>071-079>083-090>094-061100-
   SOUTHWEST IOWA

CITY           SKY/WX    TMP DP  RH WIND       PRES   REMARKS
ATLANTIC *     CLEAR     46  43  87 CALM      30.01S
AUDUBON *      CLEAR     46  41  81 CALM      30.01S
CLARINDA *       N/A     48  45  87 MISG      30.04R
COUNCIL BLFS * CLEAR     59  43  55 SW8       30.00S
CRESTON *      CLEAR     52  41  66 SW8       30.03S
HARLAN  *      CLEAR     50  43  76 S3        30.03S
LAMONI         PTCLDY    50  40  68 SW8       30.02S
RED OAK *      CLEAR     46  43  87 CALM      30.01F
SHENANDOAH *   CLEAR     50  45  81 CALM      30.02S
$$

IAZ047>049-059>061-072>074-084-061100-
   CENTRAL IOWA

CITY           SKY/WX    TMP DP  RH WIND       PRES   REMARKS
AMES           CLEAR     47  41  80 S3        29.97S
ANKENY *       CLEAR     48  43  81 S6        29.98F
BOONE *        CLEAR     54  43  66 W9        29.96S
CHARITON *     CLEAR     54  39  58 SW8       30.01S
DES MOINES     CLEAR     52  41  66 S6        29.99S
GRINNELL*      CLEAR     52  39  62 SW9       29.99S
KNOXVILLE *    CLEAR     50  37  62 SW8       29.98S
MARSHALLTOWN   CLEAR     50  40  68 SW9       29.96S
NEWTON *       CLEAR     52  41  66 SW6       29.98S
PELLA *        CLEAR     51  38  60 SW6       30.01S
PERRY *          N/A     52  43  71 SW9       29.98S
$$

IAZ004>006-015-016-023>025-035-036-061100-
   NORTH CENTRAL IOWA

CITY           SKY/WX    TMP DP  RH WIND       PRES   REMARKS
ALGONA *       CLEAR     55  43  62 SW9       29.95F
CLARION *      CLEAR     46  39  76 S5        29.96S
ESTHERVILLE    CLEAR     56  41  57 SW7       29.93F
FORT DODGE *   CLEAR     52  39  62 CALM      29.97S
MASON CITY     CLEAR     58  41  53 W15       29.95S
FOREST CITY *  CLEAR     48  39  71 CALM      29.95S
WEBSTER CITY * CLEAR     48  41  76 SW10      29.95R
IOWA FALLS *     N/A     54  41  62 W9        29.96F
$$

IAZ007>011-017>019-026>030-037>042-050>054-066-061100-
   NORTHEAST IOWA

CITY           SKY/WX    TMP DP  RH WIND       PRES   REMARKS
CEDAR RAPIDS   CLEAR     50  38  63 S5        29.96S
CHARLES CITY * CLEAR     50  39  66 SW7       29.94R
CLINTON *      CLEAR     47  41  80 SW3       29.98F
DECORAH *      PTCLDY    54  37  54 SW6       29.91S
DUBUQUE        CLEAR     47  37  68 S8        29.96S
MONTICELLO *   CLEAR     48  37  66 SE3       29.96R
OELWEIN *      CLEAR     48  39  71 S7        29.95S
WATERLOO       CLEAR     53  39  59 SW10      29.94S
$$

IAZ064-065-067-068-078-061100-
   EAST CENTRAL IOWA

CITY           SKY/WX    TMP DP  RH WIND       PRES   REMARKS
DAVENPORT      CLEAR     47  38  71 SW5       29.99S
IOWA CITY      CLEAR     46  42  86 CALM      29.99S
MT. PLEASANT * CLEAR     48  41  76 SW6       30.00S
MUSCATINE *    CLEAR     48  39  71 S3        30.00R
QUAD CITIES    CLEAR     44  39  82 CALM      29.98S
$$

IAZ062-063-075>077-085>089-095>099-061100-
   SOUTHEAST IOWA

CITY           SKY/WX    TMP DP  RH WIND       PRES   REMARKS
BURLINGTON     CLEAR     47  39  74 SW6       30.00S
FAIRFIELD *    CLEAR     50  37  62 SW7       30.00S
FORT MADISON * CLEAR     48  41  76 SW6       30.01F
KEOKUK *       CLEAR     46  43  87 SW6       30.01S
OTTUMWA        CLEAR     49  37  63 SW7       29.99F
WASHINGTON *   CLEAR     48  39  71 SW10      30.00S
$$

ABBREVIATIONS USED IN REMARKS
   TC - TEMPERATURES IN CELSIUS
  WCI - WIND CHILL INDEX
   HX - HEAT INDEX
  VSB - VISIBILITY
$$





USA.gov is the U.S. government's official web portal to all federal, state and local government web resources and services.